Regional Weather Roundup
Issued by NWS Albany, NY

Home | Current Version | Previous Version | Text Only | Print | Product List | Glossary On
Versions: 1 2 3 4 5 6 7 8 9 10 11 12 13 14 15 16 17 18 19 20 21 22 23 24 25 26 27 28 29 30 31 32 33 34 35 36 37 38 39 40 41 42 43 44 45 46 47
000
ASUS41 KALY 011310
RWRALY

NEW YORK STATE HOURLY WEATHER ROUNDUP
NATIONAL WEATHER SERVICE ALBANY NY
900 AM EDT WED OCT 01 2014

NOTE: "FAIR" INDICATES FEW OR NO CLOUDS BELOW 12,000 FEET WITH NO
SIGNIFICANT WEATHER AND/OR NO OBSTRUCTIONS TO VISIBILITY.

NYZ032-033-038>043-046>054-057>066-NYZ062>081-011400-
EAST


CITY           SKY/WX    TMP DP  RH WIND       PRES   REMARKS
ALBANY         CLOUDY    61  57  87 N3        30.08R
GLENS FALLS    CLOUDY    60  55  83 NE6       30.10R
POUGHKEEPSIE   LGT RAIN  60  57  89 N5        30.05R FOG
NEWBURGH       CLOUDY    59  57  94 E6        30.07R
MONTGOMERY     CLOUDY    59  56  89 N6        30.06R
WHITE PLAINS   CLOUDY    60  57  89 N6        30.03R FOG
ISLIP          CLOUDY    61  59  93 NE9       30.00R
NEW YORK CITY  CLOUDY    63  57  82 NE10      30.03R
CENTRAL PARK   CLOUDY    61  57  87 NE6       30.05S
$$

NYZ005>009-017-018-044>046-055-056-011400-
CENTRAL


CITY           SKY/WX    TMP DP  RH WIND       PRES   REMARKS
FULTON         CLOUDY    59  57  93 CALM      30.07R FOG
SYRACUSE       MOSUNNY   61  58  90 E9        30.06R
ROME           MOSUNNY   61  57  87 E5        30.09R
ELMIRA         CLOUDY    61  60  97 CALM      30.05R FOG
BINGHAMTON     CLOUDY    58  58 100 E6        30.07R FOG
MONTICELLO     PTSUNNY   57  54  88 SE5       30.09R
$$

NYZ026>034-041>043-011400-
NORTH


CITY           SKY/WX    TMP DP  RH WIND       PRES   REMARKS
WATERTOWN      CLOUDY    56  51  84 NE10      30.09R HAZE
FORT DRUM      NOT AVBL
MASSENA        CLOUDY    54  52  93 E7        30.15R
SARANAC LAKE   FOG       53  53 100 E5        30.11R VSB 1/2
PLATTSBURGH    CLOUDY    51  50  96 N6        30.15S FOG
$$

NYZ001>004-010>016-019>021-011400-
WEST


CITY           SKY/WX    TMP DP  RH WIND       PRES   REMARKS
NIAGARA FALLS  CLOUDY    59  57  93 NE7       30.06R FOG
BUFFALO        CLOUDY    59  56  89 NE9       30.06R FOG
DUNKIRK        MOSUNNY   58  55  90 E9        30.04R
JAMESTOWN      CLOUDY    54  54 100 E7        30.06R VSB<1/4
WELLSVILLE     FOG       55  53  93 N3        30.09R VSB<1/4
ROCHESTER      CLOUDY    61  59  93 NE9       30.07R FOG
PENN YAN       CLOUDY    60  32  34 CALM      30.07R FOG
$$

             KEY
       WCI = WIND CHILL INDEX
       VSB = VISIBILITY
       HX  = HEAT INDEX
$$



USA.gov is the U.S. government's official web portal to all federal, state and local government web resources and services.